This is the latest recevied weather packets stored in our database for station/object DK4DAX-2. If no packets are shown the sender has not sent any weather packets the latest 10 day(s).
| Time | Temp. | Humidity | Pressure | Rain* | Wind** | Luminosity | Snow |
|---|---|---|---|---|---|---|---|
| 1777680001 | 13.89° C | 46% | 1014.5 hPa | 0 mm | - | - | - |
| 1777679102 | 13.89° C | 45% | 1014.3 hPa | 0 mm | - | - | - |
| 1777678201 | 14.44° C | 44% | 1014.4 hPa | 0 mm | - | - | - |
| 1777677301 | 14.44° C | 43% | 1014.6 hPa | 0 mm | - | - | - |
| 1777676402 | 15° C | 43% | 1014.3 hPa | 0 mm | - | - | - |
| 1777675501 | 15° C | 43% | 1014.7 hPa | 0 mm | - | - | - |
| 1777674602 | 15° C | 42% | 1014.7 hPa | 0 mm | - | - | - |
| 1777673702 | 15° C | 41% | 1014.6 hPa | 0 mm | - | - | - |
| 1777672802 | 15.56° C | 40% | 1014.7 hPa | 0 mm | - | - | - |
| 1777671902 | 15.56° C | 39% | 1014.7 hPa | 0 mm | - | - | - |
| 1777671001 | 16.11° C | 37% | 1014.7 hPa | 0 mm | - | - | - |
| 1777670101 | 16.11° C | 35% | 1014.8 hPa | 0 mm | - | - | - |
| 1777669202 | 16.67° C | 33% | 1014.8 hPa | 0 mm | - | - | - |
| 1777668301 | 17.22° C | 31% | 1014.8 hPa | 0 mm | - | - | - |
| 1777667401 | 17.78° C | 29% | 1014.8 hPa | 0 mm | - | - | - |
| 1777666501 | 17.78° C | 28% | 1014.8 hPa | 0 mm | - | - | - |
| 1777665602 | 18.33° C | 28% | 1014.6 hPa | 0 mm | - | - | - |
| 1777664701 | 18.89° C | 26% | 1014.8 hPa | 0 mm | - | - | - |
| 1777663801 | 19.44° C | 22% | 1014.6 hPa | 0 mm | - | - | - |
| 1777662902 | 20° C | 20% | 1014.6 hPa | 0 mm | - | - | - |
| 1777662001 | 21.11° C | 18% | 1014.5 hPa | 0 mm | - | - | - |
| 1777661102 | 22.22° C | 14% | 1014.6 hPa | 0 mm | - | - | - |
| 1777660202 | 22.22° C | 13% | 1014.5 hPa | 0 mm | - | - | - |
| 1777659301 | 22.78° C | 13% | 1014.5 hPa | 0 mm | - | - | - |
| 1777658402 | 22.78° C | 16% | 1014.6 hPa | 0 mm | - | - | - |
* Rain latest hour (hover to see other rain measurements)
** Current wind speed in m/s (hover to see current wind gust speed)